| time (UTC) | temp F | wind direction | speed MPH | gust MPH | rain 1hr in | rain 24hr in | rain mn in | humidity % | barometer mb |
| 20260831011529 | 60 | 0.0 | 0.0 | 0.00 | 0.97 | 0.97 | 99 | 1016.9 | |
| 20260831011027 | 60 | 0.0 | 0.0 | 0.00 | 0.97 | 0.97 | 99 | 1017.1 | |
| 20260831010525 | 60 | 0.0 | 0.0 | 0.03 | 0.97 | 0.97 | 99 | 1017.3 | |
| 20260831010023 | 60 | 0.0 | 0.0 | 0.03 | 0.97 | 0.97 | 99 | 1017.5 | |
| 20260831005520 | 59 | 0.0 | 0.0 | 0.03 | 0.97 | 0.97 | 99 | 1017.5 | |
| 20260831005018 | 59 | 0.0 | 0.0 | 0.03 | 0.97 | 0.97 | 99 | 1017.4 | |
| 20260831004515 | 59 | 0.0 | 0.0 | 0.03 | 0.97 | 0.97 | 99 | 1017.4 | |
| 20260831004013 | 59 | 0.0 | 0.0 | 0.03 | 0.97 | 0.97 | 99 | 1017.4 | |
| 20260831003510 | 59 | 0.0 | 0.0 | 0.03 | 0.97 | 0.97 | 99 | 1017.3 | |
| 20260831003007 | 59 | 0.0 | 0.0 | 0.03 | 0.97 | 0.97 | 99 | 1017.8 | |
| 20260831002505 | 59 | 0.0 | 0.0 | 0.04 | 0.97 | 0.97 | 99 | 1018.1 | |
| 20260831002003 | 59 | 0.0 | 0.0 | 0.04 | 0.97 | 0.97 | 99 | 1018.0 | |
| 20260831001500 | 59 | 0.0 | 0.0 | 0.04 | 0.97 | 0.97 | 99 | 1017.7 | |
| 20260831000958 | 59 | 0.0 | 0.0 | 0.05 | 0.97 | 0.97 | 99 | 1018.0 | |
| 20260831000456 | 59 | 0.0 | 0.0 | 0.04 | 0.96 | 0.96 | 99 | 1018.2 | |
| 20260830235953 | 59 | 0.0 | 0.0 | 0.02 | 0.94 | 0.94 | 99 | 1018.5 | |
| 20260830235451 | 60 | 0.0 | 0.0 | 0.02 | 0.94 | 0.94 | 99 | 1018.7 | |
| 20260830234948 | 60 | 0.0 | 0.0 | 0.02 | 0.94 | 0.94 | 99 | 1017.9 | |
| 20260830234446 | 60 | 0.0 | 0.0 | 0.02 | 0.94 | 0.94 | 99 | 1017.4 | |
| 20260830233944 | 59 | 0.0 | 0.0 | 0.02 | 0.94 | 0.94 | 99 | 1017.5 | |
| 20260830233441 | 59 | 0.0 | 0.0 | 0.02 | 0.94 | 0.94 | 99 | 1017.6 | |
| 20260830232939 | 59 | 0.0 | 0.0 | 0.02 | 0.94 | 0.94 | 99 | 1017.9 | |
| 20260830232437 | 60 | 0.0 | 0.0 | 0.01 | 0.94 | 0.94 | 99 | 1018.8 | |
| 20260830231936 | 60 | 0.0 | 0.0 | 0.01 | 0.94 | 0.94 | 99 | 1018.0 | |
| 20260830231435 | 60 | 0.0 | 0.0 | 0.01 | 0.94 | 0.94 | 99 | 1017.9 | |
| 20260830230933 | 59 | 0.0 | 0.0 | 0.03 | 0.94 | 0.94 | 99 | 1018.0 | |
| 20260830230431 | 60 | 0.0 | 0.0 | 0.03 | 0.94 | 0.94 | 99 | 1018.0 | |
| 20260830225928 | 59 | 0.0 | 0.0 | 0.04 | 0.93 | 0.93 | 99 | 1018.2 | |
| 20260830225425 | 59 | 0.0 | 0.0 | 0.04 | 0.93 | 0.93 | 99 | 1018.0 | |
| 20260830224923 | 59 | 0.0 | 0.0 | 0.07 | 0.93 | 0.93 | 99 | 1017.9 | |
| 20260830224420 | 59 | 0.0 | 0.0 | 0.07 | 0.93 | 0.93 | 99 | 1017.7 | |
| 20260830223918 | 59 | 0.0 | 0.0 | 0.09 | 0.93 | 0.93 | 99 | 1017.7 | |
| 20260830223416 | 59 | 0.0 | 0.0 | 0.09 | 0.93 | 0.93 | 99 | 1017.6 | |
| 20260830222913 | 59 | 0.0 | 0.0 | 0.12 | 0.93 | 0.93 | 99 | 1017.1 | |
| 20260830222411 | 59 | 0.0 | 0.0 | 0.12 | 0.93 | 0.93 | 99 | 1016.9 | |
| 20260830221909 | 59 | 0.0 | 0.0 | 0.14 | 0.93 | 0.93 | 99 | 1017.0 | |
| 20260830221407 | 59 | 0.0 | 0.0 | 0.14 | 0.93 | 0.93 | 99 | 1016.9 | |
| 20260830220905 | 60 | 0.0 | 0.0 | 0.14 | 0.93 | 0.93 | 99 | 1017.1 | |
| 20260830220403 | 60 | 0.0 | 0.0 | 0.13 | 0.92 | 0.92 | 99 | 1017.4 | |
| 20260830215901 | 60 | 0.0 | 0.0 | 0.12 | 0.90 | 0.90 | 99 | 1017.9 | |
| 20260830215359 | 60 | 0.0 | 0.0 | 0.11 | 0.89 | 0.89 | 99 | 1018.1 | |
| 20260830214856 | 60 | 0.0 | 0.0 | 0.14 | 0.89 | 0.89 | 99 | 1018.0 | |
| 20260830214354 | 60 | 0.0 | 0.0 | 0.13 | 0.88 | 0.88 | 99 | 1017.8 | |
| 20260830213853 | 60 | 0.0 | 0.0 | 0.14 | 0.85 | 0.85 | 99 | 1017.6 | |
| 20260830213350 | 60 | 0.0 | 0.0 | 0.13 | 0.84 | 0.84 | 99 | 1017.6 | |
| 20260830212848 | 59 | 0.0 | 0.0 | 0.16 | 0.84 | 0.84 | 99 | 1017.3 | |
| 20260830212346 | 59 | 0.0 | 0.0 | 0.14 | 0.82 | 0.82 | 99 | 1017.4 | |
| 20260830211843 | 59 | 0.0 | 0.0 | 0.16 | 0.81 | 0.81 | 99 | 1017.5 | |
| 20260830211341 | 59 | 0.0 | 0.0 | 0.15 | 0.80 | 0.80 | 99 | 1017.5 | |
| 20260830210839 | 59 | 0.0 | 0.0 | 0.16 | 0.79 | 0.79 | 99 | 1017.6 | |
| 20260830210337 | 59 | 0.0 | 0.0 | 0.16 | 0.79 | 0.79 | 99 | 1017.6 | |
| 20260830205834 | 59 | 0.0 | 0.0 | 0.18 | 0.79 | 0.79 | 99 | 1017.5 | |
| 20260830205332 | 59 | 0.0 | 0.0 | 0.18 | 0.79 | 0.79 | 99 | 1018.2 | |
| 20260830204829 | 59 | 0.0 | 0.0 | 0.19 | 0.78 | 0.78 | 99 | 1017.5 | |
| 20260830204327 | 59 | 0.0 | 0.0 | 0.18 | 0.77 | 0.77 | 99 | 1017.4 | |
| 20260830203824 | 59 | 0.0 | 0.0 | 0.17 | 0.75 | 0.75 | 99 | 1017.9 | |
| 20260830203322 | 59 | 0.0 | 0.0 | 0.15 | 0.73 | 0.73 | 99 | 1018.0 | |
| 20260830202819 | 60 | 0.0 | 0.0 | 0.13 | 0.71 | 0.71 | 99 | 1018.7 | |
| 20260830202317 | 60 | 0.0 | 0.0 | 0.11 | 0.69 | 0.69 | 99 | 1018.8 | |
| 20260830201815 | 60 | 0.0 | 0.0 | 0.11 | 0.68 | 0.68 | 99 | 1019.1 | |
| 20260830201313 | 60 | 0.0 | 0.0 | 0.10 | 0.67 | 0.67 | 99 | 1019.4 | |
| 20260830200811 | 61 | 0.0 | 0.0 | 0.09 | 0.65 | 0.65 | 99 | 1019.7 | |
| 20260830200309 | 61 | 0.0 | 0.0 | 0.07 | 0.63 | 0.63 | 99 | 1019.5 | |
| 20260830195806 | 61 | 0.0 | 0.0 | 0.12 | 0.62 | 0.62 | 99 | 1019.4 | |
| 20260830195305 | 61 | 0.0 | 0.0 | 0.12 | 0.62 | 0.62 | 99 | 1018.9 | |
| 20260830194802 | 61 | 0.0 | 0.0 | 0.11 | 0.61 | 0.61 | 99 | 1019.3 | |
| 20260830194300 | 61 | 0.0 | 0.0 | 0.09 | 0.59 | 0.59 | 99 | 1019.4 | |
| 20260830193758 | 61 | 0.0 | 0.0 | 0.09 | 0.59 | 0.59 | 99 | 1018.1 | |
| 20260830193256 | 60 | 0.0 | 0.0 | 0.08 | 0.58 | 0.58 | 99 | 1017.3 | |
| 20260830192754 | 60 | 0.0 | 0.0 | 0.08 | 0.58 | 0.58 | 99 | 1017.0 | |
| 20260830192251 | 60 | 0.0 | 0.0 | 0.08 | 0.58 | 0.58 | 99 | 1017.1 | |
| 20260830191749 | 60 | 0.0 | 0.0 | 0.09 | 0.57 | 0.57 | 99 | 1016.9 | |
| 20260830191247 | 60 | 0.0 | 0.0 | 0.09 | 0.57 | 0.57 | 99 | 1017.0 | |
| 20260830190745 | 59 | 0.0 | 0.0 | 0.10 | 0.56 | 0.56 | 99 | 1018.2 | |
| 20260830190242 | 59 | 0.0 | 0.0 | 0.10 | 0.56 | 0.56 | 99 | 1018.5 | |
| 20260830185740 | 59 | 0.0 | 0.0 | 0.12 | 0.55 | 0.55 | 99 | 1018.5 | |
| 20260830185237 | 59 | 0.0 | 0.0 | 0.09 | 0.52 | 0.52 | 99 | 1019.0 | |
| 20260830184734 | 59 | 0.0 | 0.0 | 0.21 | 0.50 | 0.50 | 99 | 1018.8 | |
| 20260830184232 | 59 | 0.0 | 0.0 | 0.21 | 0.50 | 0.50 | 99 | 1018.6 | |
| 20260830183730 | 59 | 0.0 | 0.0 | 0.25 | 0.50 | 0.50 | 99 | 1018.6 | |
| 20260830183228 | 59 | 0.0 | 0.0 | 0.25 | 0.50 | 0.50 | 99 | 1018.6 | |
| 20260830182726 | 59 | 0.0 | 0.0 | 0.25 | 0.50 | 0.50 | 99 | 1018.0 | |
| 20260830182224 | 59 | 0.0 | 0.0 | 0.25 | 0.50 | 0.50 | 99 | 1017.9 | |
| 20260830181722 | 59 | 0.0 | 0.0 | 0.24 | 0.49 | 0.49 | 99 | 1018.2 | |
| 20260830181219 | 59 | 0.0 | 0.0 | 0.24 | 0.49 | 0.49 | 99 | 1018.3 | |
| 20260830180717 | 59 | 0.0 | 0.0 | 0.23 | 0.48 | 0.48 | 99 | 1018.8 | |
| 20260830180214 | 59 | 0.0 | 0.0 | 0.22 | 0.47 | 0.47 | 99 | 1018.6 | |
| 20260830175712 | 59 | 0.0 | 0.0 | 0.20 | 0.45 | 0.45 | 99 | 1018.4 | |
| 20260830175209 | 59 | 0.0 | 0.0 | 0.20 | 0.45 | 0.45 | 99 | 1017.6 | |
| 20260830174707 | 59 | 0.0 | 0.0 | 0.16 | 0.41 | 0.41 | 99 | 1018.2 | |
| 20260830174205 | 59 | 0.0 | 0.0 | 0.08 | 0.33 | 0.33 | 99 | 1018.7 | |
| 20260830173703 | 61 | 0.0 | 0.0 | 0.01 | 0.27 | 0.27 | 97 | 1017.9 | |
| 20260830173200 | 61 | 0.0 | 0.0 | 0.00 | 0.26 | 0.26 | 96 | 1017.0 | |
| 20260830172658 | 61 | 0.0 | 0.0 | 0.00 | 0.26 | 0.26 | 95 | 1017.4 | |
| 20260830172155 | 61 | 0.0 | 0.0 | 0.00 | 0.26 | 0.26 | 92 | 1017.0 | |
| 20260830171653 | 62 | 0.0 | 0.0 | 0.00 | 0.26 | 0.26 | 88 | 1017.2 | |
| 20260830171151 | 62 | 0.0 | 0.0 | 0.00 | 0.26 | 0.26 | 88 | 1017.6 | |
| 20260830170648 | 62 | 0.0 | 0.0 | 0.00 | 0.26 | 0.26 | 88 | 1018.2 | |
| 20260830170146 | 62 | 0.0 | 0.0 | 0.00 | 0.26 | 0.26 | 88 | 1018.3 | |
| 20260830165644 | 62 | 0.0 | 0.0 | 0.00 | 0.26 | 0.26 | 88 | 1018.2 | |
| 20260830165141 | 63 | 0.0 | 0.0 | 0.00 | 0.26 | 0.26 | 87 | 1017.9 | |
| 20260830164639 | 63 | 0.0 | 0.0 | 0.00 | 0.26 | 0.26 | 86 | 1018.1 | |
| 20260830164136 | 64 | 0.0 | 0.0 | 0.00 | 0.26 | 0.26 | 86 | 1017.8 | |
| 20260830163634 | 64 | 0.0 | 0.0 | 0.00 | 0.26 | 0.26 | 85 | 1017.7 | |
| 20260830163132 | 64 | 0.0 | 0.0 | 0.00 | 0.26 | 0.26 | 84 | 1017.8 | |
| 20260830162630 | 65 | 0.0 | 0.0 | 0.00 | 0.26 | 0.26 | 81 | 1017.9 | |
| 20260830162127 | 66 | 0.0 | 0.0 | 0.00 | 0.26 | 0.26 | 80 | 1017.6 | |
| 20260830161625 | 67 | 0.0 | 0.0 | 0.00 | 0.26 | 0.26 | 77 | 1017.6 | |
| 20260830161123 | 68 | 0.0 | 0.0 | 0.00 | 0.26 | 0.26 | 77 | 1017.5 | |
| 20260830160621 | 67 | 0.0 | 0.0 | 0.00 | 0.26 | 0.26 | 78 | 1017.7 | |
| 20260830160119 | 68 | 0.0 | 0.0 | 0.00 | 0.26 | 0.26 | 78 | 1017.8 | |
| 20260830155616 | 68 | 0.0 | 0.0 | 0.00 | 0.26 | 0.26 | 78 | 1018.0 | |
| 20260830155114 | 68 | 0.0 | 0.0 | 0.00 | 0.26 | 0.26 | 77 | 1018.0 | |
| 20260830154612 | 67 | 0.0 | 0.0 | 0.00 | 0.26 | 0.26 | 80 | 1018.0 | |
| 20260830154110 | 66 | 0.0 | 0.0 | 0.00 | 0.26 | 0.26 | 80 | 1018.2 | |
| 20260830153608 | 67 | 0.0 | 0.0 | 0.00 | 0.26 | 0.26 | 79 | 1018.4 | |
| 20260830153106 | 68 | 0.0 | 0.0 | 0.00 | 0.26 | 0.26 | 77 | 1018.4 | |
| 20260830152603 | 69 | 0.0 | 0.0 | 0.00 | 0.26 | 0.26 | 76 | 1018.3 | |
| 20260830152101 | 69 | 0.0 | 0.0 | 0.00 | 0.26 | 0.26 | 76 | 1018.3 | |
| 20260830151559 | 69 | 0.0 | 0.0 | 0.00 | 0.26 | 0.26 | 75 | 1018.3 | |
| 20260830151057 | 71 | 0.0 | 0.0 | 0.00 | 0.26 | 0.26 | 72 | 1018.3 | |
| 20260830150555 | 72 | 0.0 | 0.0 | 0.00 | 0.26 | 0.26 | 73 | 1018.4 | |
| 20260830150053 | 70 | 0.0 | 0.0 | 0.00 | 0.26 | 0.26 | 74 | 1018.4 | |
| 20260830145550 | 71 | 0.0 | 0.0 | 0.00 | 0.26 | 0.26 | 74 | 1018.5 | |
| 20260830145049 | 71 | 0.0 | 0.0 | 0.00 | 0.26 | 0.26 | 74 | 1018.5 | |
| 20260830144547 | 70 | 0.0 | 0.0 | 0.00 | 0.26 | 0.26 | 75 | 1018.6 | |
| 20260830144044 | 71 | 0.0 | 0.0 | 0.00 | 0.26 | 0.26 | 75 | 1018.7 | |
| 20260830143542 | 70 | 0.0 | 0.0 | 0.00 | 0.26 | 0.26 | 77 | 1018.8 | |
| 20260830143040 | 69 | 0.0 | 0.0 | 0.00 | 0.26 | 0.26 | 78 | 1018.9 | |
| 20260830142537 | 70 | 0.0 | 0.0 | 0.00 | 0.26 | 0.26 | 77 | 1018.9 | |
| 20260830142035 | 72 | 0.0 | 0.0 | 0.00 | 0.26 | 0.26 | 73 | 1018.8 | |
| 20260830141533 | 74 | 0.0 | 0.0 | 0.00 | 0.26 | 0.26 | 70 | 1018.7 | |
| 20260830141030 | 71 | 0.0 | 0.0 | 0.00 | 0.26 | 0.26 | 78 | 1018.7 | |
| 20260830140528 | 71 | 0.0 | 0.0 | 0.00 | 0.26 | 0.26 | 74 | 1018.8 | |
| 20260830140026 | 74 | 0.0 | 0.0 | 0.00 | 0.26 | 0.26 | 72 | 1018.9 | |
| 20260830135524 | 74 | 0.0 | 0.0 | 0.00 | 0.26 | 0.26 | 70 | 1018.9 | |
| 20260830135021 | 76 | 0.0 | 0.0 | 0.00 | 0.26 | 0.26 | 68 | 1019.1 | |
| 20260830134519 | 75 | 0.0 | 0.0 | 0.00 | 0.26 | 0.26 | 69 | 1019.0 | |
| 20260830134017 | 75 | 0.0 | 0.0 | 0.00 | 0.26 | 0.26 | 68 | 1019.0 | |
| 20260830133515 | 74 | 0.0 | 0.0 | 0.00 | 0.26 | 0.26 | 70 | 1019.0 | |
| 20260830133012 | 73 | 0.0 | 0.0 | 0.00 | 0.26 | 0.26 | 72 | 1019.0 | |
| 20260830132509 | 72 | 0.0 | 0.0 | 0.00 | 0.26 | 0.26 | 73 | 1019.0 | |
| 20260830132007 | 74 | 0.0 | 0.0 | 0.00 | 0.26 | 0.26 | 72 | 1018.9 | |
| 20260830131505 | 72 | 0.0 | 0.0 | 0.00 | 0.26 | 0.26 | 76 | 1019.1 | |
| 20260830131003 | 70 | 0.0 | 0.0 | 0.00 | 0.26 | 0.26 | 79 | 1019.3 | |
| 20260830130500 | 69 | 0.0 | 0.0 | 0.00 | 0.26 | 0.26 | 81 | 1019.3 | |
| 20260830125957 | 69 | 0.0 | 0.0 | 0.00 | 0.26 | 0.26 | 82 | 1019.3 | |
| 20260830125455 | 69 | 0.0 | 0.0 | 0.00 | 0.26 | 0.26 | 82 | 1019.3 | |
| 20260830124953 | 70 | 0.0 | 0.0 | 0.00 | 0.26 | 0.26 | 80 | 1019.1 | |
| 20260830124450 | 69 | 0.0 | 0.0 | 0.00 | 0.26 | 0.26 | 83 | 1019.1 | |
| 20260830123947 | 69 | 0.0 | 0.0 | 0.00 | 0.26 | 0.26 | 84 | 1019.1 | |
| 20260830123444 | 68 | 0.0 | 0.0 | 0.00 | 0.26 | 0.26 | 86 | 1019.0 | |
| 20260830122941 | 66 | 0.0 | 0.0 | 0.00 | 0.26 | 0.26 | 89 | 1019.0 | |
| 20260830122438 | 65 | 0.0 | 0.0 | 0.00 | 0.26 | 0.26 | 90 | 1019.1 | |
| 20260830121935 | 64 | 0.0 | 0.0 | 0.00 | 0.26 | 0.26 | 94 | 1019.0 | |
| 20260830121432 | 64 | 0.0 | 0.0 | 0.00 | 0.26 | 0.26 | 96 | 1019.0 | |
| 20260830120930 | 63 | 0.0 | 0.0 | 0.00 | 0.26 | 0.26 | 96 | 1018.9 | |
| 20260830120427 | 63 | 0.0 | 0.0 | 0.00 | 0.26 | 0.26 | 96 | 1018.9 | |
| 20260830115924 | 64 | 0.0 | 0.0 | 0.00 | 0.26 | 0.26 | 95 | 1018.9 | |
| 20260830115421 | 64 | 0.0 | 0.0 | 0.00 | 0.26 | 0.26 | 95 | 1018.8 | |
| 20260830114919 | 64 | 0.0 | 0.0 | 0.00 | 0.26 | 0.26 | 94 | 1018.7 | |
| 20260830114417 | 65 | 0.0 | 0.0 | 0.00 | 0.26 | 0.26 | 96 | 1018.8 | |
| 20260830113914 | 64 | 0.0 | 0.0 | 0.00 | 0.26 | 0.26 | 97 | 1018.7 | |
| 20260830113412 | 64 | 0.0 | 0.0 | 0.00 | 0.26 | 0.26 | 99 | 1018.9 | |
| 20260830112909 | 63 | 0.0 | 0.0 | 0.00 | 0.26 | 0.26 | 99 | 1018.7 | |
| 20260830112407 | 62 | 0.0 | 0.0 | 0.00 | 0.26 | 0.26 | 99 | 1018.7 | |
| 20260830111904 | 62 | 0.0 | 0.0 | 0.00 | 0.26 | 0.26 | 99 | 1018.6 | |
| 20260830111402 | 62 | 0.0 | 0.0 | 0.00 | 0.26 | 0.26 | 99 | 1018.5 | |
| 20260830110900 | 62 | 0.0 | 0.0 | 0.00 | 0.26 | 0.26 | 99 | 1018.5 | |
| 20260830110358 | 62 | 0.0 | 0.0 | 0.00 | 0.26 | 0.26 | 99 | 1018.5 | |
| 20260830105856 | 61 | 0.0 | 0.0 | 0.00 | 0.26 | 0.26 | 99 | 1018.4 | |
| 20260830105354 | 61 | 0.0 | 0.0 | 0.00 | 0.26 | 0.26 | 99 | 1018.5 | |
| 20260830104853 | 61 | 0.0 | 0.0 | 0.00 | 0.26 | 0.26 | 99 | 1018.4 | |
| 20260830104351 | 61 | 0.0 | 0.0 | 0.00 | 0.26 | 0.26 | 99 | 1018.3 | |
| 20260830103849 | 61 | 0.0 | 0.0 | 0.00 | 0.26 | 0.26 | 99 | 1018.2 | |
| 20260830103347 | 61 | 0.0 | 0.0 | 0.00 | 0.26 | 0.26 | 99 | 1018.0 | |
| 20260830102845 | 61 | 0.0 | 0.0 | 0.00 | 0.26 | 0.26 | 99 | 1017.9 | |
| 20260830102344 | 61 | 0.0 | 0.0 | 0.00 | 0.26 | 0.26 | 99 | 1018.1 | |
| 20260830101843 | 60 | 0.0 | 0.0 | 0.00 | 0.26 | 0.26 | 99 | 1018.1 | |
| 20260830101340 | 60 | 0.0 | 0.0 | 0.00 | 0.26 | 0.26 | 99 | 1018.2 | |
| 20260830100838 | 60 | 0.0 | 0.0 | 0.00 | 0.26 | 0.26 | 99 | 1018.2 | |
| 20260830100337 | 60 | 0.0 | 0.0 | 0.00 | 0.26 | 0.26 | 99 | 1018.2 | |
| 20260830095835 | 60 | 0.0 | 0.0 | 0.01 | 0.26 | 0.26 | 99 | 1018.1 | |
| 20260830095333 | 59 | 0.0 | 0.0 | 0.01 | 0.26 | 0.26 | 99 | 1017.9 | |
| 20260830094832 | 59 | 0.0 | 0.0 | 0.01 | 0.26 | 0.26 | 99 | 1017.8 | |
| 20260830094330 | 59 | 0.0 | 0.0 | 0.01 | 0.26 | 0.26 | 99 | 1017.8 | |
| 20260830093828 | 59 | 0.0 | 0.0 | 0.01 | 0.26 | 0.26 | 99 | 1017.8 | |
| 20260830093326 | 59 | 0.0 | 0.0 | 0.01 | 0.26 | 0.26 | 99 | 1017.8 | |
| 20260830092824 | 59 | 0.0 | 0.0 | 0.01 | 0.26 | 0.26 | 99 | 1017.7 | |
| 20260830092323 | 59 | 0.0 | 0.0 | 0.01 | 0.26 | 0.26 | 99 | 1017.7 | |
| 20260830091821 | 59 | 0.0 | 0.0 | 0.01 | 0.26 | 0.26 | 99 | 1017.6 | |
| 20260830091319 | 59 | 0.0 | 0.0 | 0.01 | 0.26 | 0.26 | 99 | 1017.5 | |
| 20260830090818 | 59 | 0.0 | 0.0 | 0.09 | 0.26 | 0.26 | 99 | 1017.4 | |
| 20260830090316 | 59 | 0.0 | 0.0 | 0.09 | 0.26 | 0.26 | 99 | 1017.3 | |
| 20260830085814 | 59 | 0.0 | 0.0 | 0.09 | 0.26 | 0.26 | 99 | 1017.2 | |
| 20260830085312 | 59 | 0.0 | 0.0 | 0.09 | 0.26 | 0.26 | 99 | 1017.1 | |
| 20260830084811 | 60 | 0.0 | 0.0 | 0.11 | 0.25 | 0.25 | 99 | 1017.2 | |
| 20260830084310 | 60 | 0.0 | 0.0 | 0.11 | 0.25 | 0.25 | 99 | 1017.2 | |
| 20260830083808 | 60 | 0.0 | 0.0 | 0.21 | 0.25 | 0.25 | 99 | 1017.1 | |
| 20260830083307 | 60 | 0.0 | 0.0 | 0.21 | 0.25 | 0.25 | 99 | 1017.1 | |
| 20260830082805 | 60 | 0.0 | 0.0 | 0.22 | 0.25 | 0.25 | 99 | 1017.2 | |
| 20260830082306 | 60 | 0.0 | 0.0 | 0.22 | 0.25 | 0.25 | 99 | 1017.1 | |
| 20260830081802 | 60 | 0.0 | 0.0 | 0.25 | 0.25 | 0.25 | 99 | 1016.9 | |
| 20260830081300 | 60 | 0.0 | 0.0 | 0.25 | 0.25 | 0.25 | 99 | 1017.1 | |
| 20260830080759 | 60 | 0.0 | 0.0 | 0.25 | 0.25 | 0.25 | 99 | 1016.7 | |
| 20260830080257 | 60 | 0.0 | 0.0 | 0.19 | 0.19 | 0.19 | 99 | 1017.6 | |
| 20260830075755 | 60 | 0.0 | 0.0 | 0.17 | 0.17 | 0.17 | 99 | 1017.3 | |
| 20260830075254 | 60 | 0.0 | 0.0 | 0.17 | 0.17 | 0.17 | 99 | 1017.4 | |
| 20260830074752 | 60 | 0.0 | 0.0 | 0.17 | 0.17 | 0.17 | 99 | 1017.0 | |
| 20260830074251 | 60 | 0.0 | 0.0 | 0.16 | 0.16 | 0.16 | 99 | 1017.0 | |
| 20260830073749 | 60 | 0.0 | 0.0 | 0.10 | 0.10 | 0.10 | 99 | 1016.9 | |
| 20260830073248 | 61 | 0.0 | 0.0 | 0.05 | 0.05 | 0.05 | 99 | 1017.1 | |
| 20260830072746 | 61 | 0.0 | 0.0 | 0.04 | 0.04 | 0.04 | 99 | 1017.1 | |
| 20260830072245 | 61 | 0.0 | 0.0 | 0.03 | 0.03 | 0.03 | 99 | 1017.2 | |
| 20260830071743 | 61 | 0.0 | 0.0 | 0.03 | 0.03 | 0.03 | 98 | 1017.3 | |
| 20260830071241 | 62 | 0.0 | 0.0 | 0.00 | 0.00 | 0.00 | 96 | 1018.3 | |
| 20260830070739 | 61 | 0.0 | 0.0 | 0.00 | 0.00 | 0.00 | 96 | 1017.9 | |
| 20260830070238 | 62 | 0.0 | 0.0 | 0.00 | 0.00 | 0.00 | 95 | 1017.0 | |
| 20260830065736 | 62 | 0.0 | 0.0 | 0.00 | 0.00 | 0.00 | 94 | 1017.1 | |
| 20260830065234 | 62 | 0.0 | 0.0 | 0.00 | 0.00 | 0.00 | 94 | 1016.8 | |
| 20260830064733 | 62 | 0.0 | 0.0 | 0.00 | 0.00 | 0.00 | 94 | 1017.1 | |
| 20260830064231 | 62 | 0.0 | 0.0 | 0.00 | 0.00 | 0.00 | 94 | 1016.8 | |
| 20260830063730 | 62 | 0.0 | 0.0 | 0.00 | 0.00 | 0.00 | 94 | 1017.0 | |
| 20260830063228 | 62 | 0.0 | 0.0 | 0.00 | 0.00 | 0.00 | 94 | 1017.1 | |
| 20260830062726 | 62 | 0.0 | 0.0 | 0.00 | 0.00 | 0.00 | 95 | 1016.9 | |
| 20260830062225 | 62 | 0.0 | 0.0 | 0.00 | 0.00 | 0.00 | 95 | 1016.7 | |
| 20260830061723 | 62 | 0.0 | 0.0 | 0.00 | 0.00 | 0.00 | 96 | 1016.8 | |
| 20260830061221 | 62 | 0.0 | 0.0 | 0.00 | 0.00 | 0.00 | 96 | 1016.6 | |
| 20260830060720 | 62 | 0.0 | 0.0 | 0.00 | 0.00 | 0.00 | 96 | 1016.7 | |
| 20260830060219 | 62 | 0.0 | 0.0 | 0.00 | 0.00 | 0.00 | 96 | 1016.8 | |
| 20260830055717 | 62 | 0.0 | 0.0 | 0.00 | 0.00 | 0.00 | 97 | 1016.6 | |
| 20260830055215 | 62 | 0.0 | 0.0 | 0.00 | 0.00 | 0.00 | 97 | 1016.5 | |
| 20260830054714 | 62 | 0.0 | 0.0 | 0.00 | 0.00 | 0.00 | 98 | 1016.6 | |
| 20260830054212 | 62 | 0.0 | 0.0 | 0.00 | 0.00 | 0.00 | 98 | 1016.6 | |
| 20260830053711 | 62 | 0.0 | 0.0 | 0.00 | 0.00 | 0.00 | 98 | 1016.7 | |
| 20260830053209 | 62 | 0.0 | 0.0 | 0.00 | 0.00 | 0.00 | 98 | 1016.8 | |
| 20260830052708 | 62 | 0.0 | 0.0 | 0.00 | 0.00 | 0.00 | 98 | 1016.8 | |
| 20260830052206 | 62 | 0.0 | 0.0 | 0.00 | 0.00 | 0.00 | 98 | 1016.9 | |
| 20260830051704 | 62 | 0.0 | 0.0 | 0.00 | 0.00 | 0.00 | 97 | 1016.9 | |
| 20260830051203 | 62 | 0.0 | 0.0 | 0.00 | 0.00 | 0.00 | 97 | 1016.9 | |
| 20260830050701 | 62 | 0.0 | 0.0 | 0.00 | 0.00 | 0.00 | 97 | 1016.7 | |
| 20260830050200 | 63 | 0.0 | 0.0 | 0.00 | 0.00 | 0.00 | 97 | 1016.9 | |
| 20260830045658 | 62 | 0.0 | 0.0 | 0.00 | 0.00 | 0.00 | 97 | 1017.0 | |
| 20260830045156 | 62 | 0.0 | 0.0 | 0.00 | 0.00 | 0.00 | 98 | 1017.0 | |
| 20260830044655 | 62 | 0.0 | 0.0 | 0.00 | 0.00 | 0.00 | 98 | 1016.9 | |
| 20260830044153 | 62 | 0.0 | 0.0 | 0.00 | 0.00 | 0.00 | 98 | 1016.9 | |
| 20260830043652 | 62 | 0.0 | 0.0 | 0.00 | 0.00 | 0.00 | 98 | 1017.0 | |
| 20260830043150 | 62 | 0.0 | 0.0 | 0.00 | 0.00 | 0.00 | 98 | 1016.9 | |
| 20260830042648 | 62 | 0.0 | 0.0 | 0.00 | 0.00 | 0.00 | 98 | 1016.9 | |
| 20260830042147 | 62 | 0.0 | 0.0 | 0.00 | 0.00 | 0.00 | 98 | 1016.9 | |
| 20260830041646 | 62 | 0.0 | 0.0 | 0.00 | 0.00 | 0.00 | 97 | 1017.0 | |
| 20260830041144 | 62 | 0.0 | 0.0 | 0.00 | 0.00 | 0.00 | 97 | 1017.1 | |
| 20260830040642 | 62 | 0.0 | 0.0 | 0.00 | 0.00 | 0.00 | 97 | 1017.1 | |
| 20260830040140 | 63 | 0.0 | 0.0 | 0.00 | 0.00 | 0.00 | 97 | 1017.1 | |
| 20260830035639 | 63 | 0.0 | 0.0 | 0.00 | 0.00 | 0.00 | 97 | 1017.0 | |
| 20260830035137 | 63 | 0.0 | 0.0 | 0.00 | 0.00 | 0.00 | 97 | 1017.0 | |
| 20260830034636 | 63 | 0.0 | 0.0 | 0.00 | 0.00 | 0.00 | 97 | 1017.1 | |
| 20260830034134 | 63 | 0.0 | 0.0 | 0.00 | 0.00 | 0.00 | 97 | 1017.0 | |
| 20260830033632 | 63 | 0.0 | 0.0 | 0.00 | 0.00 | 0.00 | 97 | 1017.1 | |
| 20260830033131 | 63 | 0.0 | 0.0 | 0.00 | 0.00 | 0.00 | 97 | 1017.2 | |
| 20260830032629 | 63 | 0.0 | 0.0 | 0.00 | 0.00 | 0.00 | 97 | 1017.2 | |
| 20260830032127 | 63 | 0.0 | 0.0 | 0.00 | 0.00 | 0.00 | 97 | 1017.2 | |
| 20260830031626 | 63 | 0.0 | 0.0 | 0.00 | 0.00 | 0.00 | 97 | 1017.2 | |
| 20260830031124 | 63 | 0.0 | 0.0 | 0.00 | 0.00 | 0.00 | 96 | 1017.2 | |
| 20260830030622 | 63 | 0.0 | 0.0 | 0.00 | 0.00 | 0.00 | 96 | 1017.1 | |
| 20260830030120 | 63 | 0.0 | 0.0 | 0.00 | 0.00 | 0.00 | 96 | 1017.1 | |
| 20260830025619 | 63 | 0.0 | 0.0 | 0.00 | 0.00 | 0.00 | 96 | 1017.1 | |
| 20260830025117 | 63 | 0.0 | 0.0 | 0.00 | 0.00 | 0.00 | 96 | 1017.1 | |
| 20260830024615 | 63 | 0.0 | 0.0 | 0.00 | 0.00 | 0.00 | 95 | 1017.0 | |
| 20260830024114 | 63 | 0.0 | 0.0 | 0.00 | 0.00 | 0.00 | 96 | 1017.0 | |
| 20260830023612 | 63 | 0.0 | 0.0 | 0.00 | 0.00 | 0.00 | 96 | 1017.0 | |
| 20260830023111 | 63 | 0.0 | 0.0 | 0.00 | 0.00 | 0.00 | 96 | 1017.0 | |
| 20260830022609 | 63 | 0.0 | 0.0 | 0.00 | 0.00 | 0.00 | 95 | 1017.0 | |
| 20260830022107 | 64 | 0.0 | 0.0 | 0.00 | 0.00 | 0.00 | 95 | 1016.9 | |
| 20260830021606 | 64 | 0.0 | 0.0 | 0.00 | 0.00 | 0.00 | 95 | 1016.8 | |
| 20260830021105 | 63 | 0.0 | 0.0 | 0.00 | 0.00 | 0.00 | 94 | 1016.7 | |
| 20260830020603 | 64 | 0.0 | 0.0 | 0.00 | 0.00 | 0.00 | 93 | 1016.9 | |
| 20260830015559 | 64 | 0.0 | 0.0 | 0.00 | 0.00 | 0.00 | 92 | 1016.7 | |
| 20260830015058 | 64 | 0.0 | 0.0 | 0.00 | 0.00 | 0.00 | 92 | 1016.7 | |
| 20260830014556 | 64 | 0.0 | 0.0 | 0.00 | 0.00 | 0.00 | 92 | 1016.6 | |
| 20260830014054 | 64 | 0.0 | 0.0 | 0.00 | 0.00 | 0.00 | 92 | 1016.7 | |
| 20260830013551 | 65 | 0.0 | 0.0 | 0.00 | 0.00 | 0.00 | 90 | 1016.9 | |
| 20260830013049 | 65 | 0.0 | 0.0 | 0.00 | 0.00 | 0.00 | 89 | 1016.8 | |
| 20260830012547 | 65 | 0.0 | 0.0 | 0.00 | 0.00 | 0.00 | 89 | 1016.7 | |
| 20260830012045 | 65 | 0.0 | 0.0 | 0.00 | 0.00 | 0.00 | 89 | 1016.9 |